Weather Roundup
Issued by NWS Springfield, MO

Home | Current Version | Previous Version | Text Only | Print | Product List | Glossary On
Versions: 1 2 3 4 5 6 7 8 9 10 11 12 13 14 15 16 17 18 19 20 21 22 23 24 25 26 27 28 29 30 31 32 33 34 35 36 37 38 39 40 41 42 43 44 45 46 47 48 49 50
000
NZUS99 KSGF 270957
HRRSGF

HOURLY WEATHER
NATIONAL WEATHER SERVICE SPRINGFIELD MO
500 AM CDT WED JUL 27 2016

......SGF CWA......

CITY           SKY/WX    TMP DP  RH WIND       PRES   REMARKS
SPRINGFIELD    LGT RAIN  74  71  91 S3        30.00R
JOPLIN         CLOUDY    72  71  97 NE5       30.00R FOG
WEST PLAINS    PTCLDY    71  68  90 CALM      30.04R
ROLLA          CLOUDY    72  71  97 CALM      30.01R

......SURROUNDING SGF CWA......

CITY           SKY/WX    TMP DP  RH WIND       PRES   REMARKS
CHANUTE        CLOUDY    73  71  93 CALM      30.00R
PARSONS        MOCLDY    71  70  96 CALM      30.00R
COFFEYVILLE    CLOUDY    72  71  97 NE5       29.98R
EMPORIA        PTCLDY    70  69  97 NE3       30.01S
HARRISON AR    PTCLDY    71  71 100 CALM      30.02R FOG

......KANSAS AND MISSOURI......

CITY           SKY/WX    TMP DP  RH WIND       PRES   REMARKS
KANSAS CTY INT PTCLDY    71  66  84 NE3       30.01R
SEDALIA        CLOUDY    73  70  90 CALM      30.01R
ST JOSEPH      PTCLDY    65  62  90 CALM      30.01S
ST LOUIS       CLOUDY    79  74  84 S6        30.00R
WICHITA        PTCLDY    75  72  90 NE3       29.99R
TOPEKA         PTCLDY    69  67  93 CALM      30.01R

......TENNESSEE......

CITY           SKY/WX    TMP DP  RH WIND       PRES   REMARKS
MEMPHIS        NOT AVBL
NASHVILLE      PTCLDY    75  72  90 CALM      30.00R

......ARKANSAS.......

CITY           SKY/WX    TMP DP  RH WIND       PRES   REMARKS
FAYETTEVILLE   CLOUDY    70  70 100 CALM      29.99R
FT SMITH       CLOUDY    76  73  91 NE6       29.95R
LITTLE ROCK    CLOUDY    81  73  76 N6        29.94R

......OKLAHOMA.......

CITY           SKY/WX    TMP DP  RH WIND       PRES   REMARKS
TULSA          CLOUDY    75  74  96 CALM      29.94R
PONCA CITY     PTCLDY    75  71  87 E5        29.97R
MCALESTER      CLOUDY    76  73  91 CALM      29.95R
OKLAHOMA CITY  PTCLDY    74  70  87 CALM      29.97R

......IOWA............

CITY           SKY/WX    TMP DP  RH WIND       PRES   REMARKS
DES MOINES     NOT AVBL
QUAD CITIES    CLEAR     66  63  90 CALM      30.01R

......ILLINOIS........

CITY           SKY/WX    TMP DP  RH WIND       PRES   REMARKS
QUINCY         CLEAR     71  68  90 NE3       30.00R
CHICAGO        PTCLDY    71  64  78 N3        30.01R




USA.gov is the U.S. government's official web portal to all federal, state and local government web resources and services.